Flag for United Kingdom Weather past 2 weeks in Canvey Island, England, United Kingdom

Now
48 °F

Clear.


Feels Like: 47 °F
Forecast: 51 / 63 °F
Wind: 3 mph from West

Location: Southend Airport-On-Sea

Current Time: Sep 23, 2014 at 2:26:45 AM

Latest Report: Sep 23, 2014 at 1:50 AM


Visibility: 5 mi

Pressure: 30.21 "Hg

Humidity: 87%

Dew point: 45 °F

Location of Canvey IslandLocation

Historic Weather in Canvey Island — Graph

°F

Canvey Island temperature yesterday

Maximum temperature yesterday: 64 °F (at 3:20 PM)
Minimum temperature yesterday: 46 °F (at 5:50 AM)
Average temperature yesterday: 55 °F

Past Weeks' High & Low Weather Summary

 TemperatureHumidityPressure
High73 °F (Sep 18, 12:20 PM)100% (Sep 16, 9:20 AM)30.33 "Hg (Sep 16, 9:20 AM)
Low46 °F (Sep 8, 5:20 AM)49% (Sep 8, 11:20 AM)29.80 "Hg (Sep 18, 3:20 AM)
Average61 °F80%30.09 "Hg
* Reported Sep 8 2:20 AM — Sep 23 1:20 AM, Canvey Island, Weather by CustomWeather, © 2014

Note: Actual official high and low records may vary slightly from our data, if they occured in-between our weather recording intervals... More about our weather records

Advertising

Canvey Island weather history for previous 24 hours

 ConditionsComfort  
Time TempWeatherWind HumidityBarometerVisibility
1:20 AM
Sep 23
48 °FClear.3 mph87%30.21 "Hg10 mi
12:50 AM48 °FPassing clouds.3 mph87%30.21 "HgN/A
12:20 AM48 °FPassing clouds.3 mph87%30.21 "HgN/A
11:50 PM
Sep 22
46 °FClear.3 mph93%30.24 "Hg10 mi
11:20 PM46 °FClear.5 mph93%30.24 "Hg10 mi
10:50 PM48 °FClear.No wind87%30.24 "Hg10 mi
10:20 PM48 °FClear.No wind94%30.24 "Hg10 mi
9:50 PM50 °FClear.No wind88%30.24 "Hg10 mi
9:20 PM50 °FClear.No wind88%30.24 "Hg10 mi
8:50 PM50 °FClear.3 mph88%30.24 "Hg10 mi
8:20 PM54 °FClear.3 mph82%30.24 "Hg10 mi
7:50 PM54 °FSunny.3 mph82%30.24 "Hg10 mi
7:20 PM57 °FSunny.1 mph77%30.24 "Hg10 mi
6:50 PM59 °FSunny.No wind68%30.24 "Hg10 mi
6:20 PM63 °FSunny.2 mph56%30.24 "Hg10 mi
5:50 PM63 °FSunny.6 mph56%30.24 "Hg10 mi
5:20 PM63 °FPassing clouds.5 mph56%30.24 "HgN/A
4:50 PM64 °FPassing clouds.6 mph52%30.24 "HgN/A
4:20 PM63 °FPassing clouds.7 mph56%30.24 "HgN/A
3:50 PM64 °FScattered clouds.3 mph52%30.24 "HgN/A
3:20 PM64 °FScattered clouds.6 mph52%30.24 "HgN/A
2:50 PM63 °FScattered clouds.6 mph56%30.24 "HgN/A
2:20 PM63 °FScattered clouds.5 mph56%30.27 "HgN/A
1:50 PM61 °FScattered clouds.6 mph59%30.27 "Hg5 mi
1:20 PM63 °FPassing clouds.6 mph59%30.27 "Hg5 mi
12:50 PM63 °FPassing clouds.5 mph56%30.30 "Hg5 mi
12:20 PM61 °FClear.7 mph55%30.27 "Hg5 mi
11:50 AM61 °FClear.8 mph55%30.30 "Hg5 mi
11:20 AM59 °FClear.7 mph63%30.30 "Hg5 mi
10:50 AM59 °FClear.9 mph63%30.30 "Hg5 mi
10:20 AM57 °FClear.7 mph67%30.30 "Hg5 mi
9:50 AM55 °FClear.6 mph72%30.30 "Hg5 mi
9:20 AM54 °FClear.7 mph77%30.30 "Hg4 mi
8:50 AM52 °FClear.7 mph82%30.30 "Hg4 mi
8:20 AM50 °FClear.3 mph82%30.30 "Hg4 mi
7:50 AM48 °FClear.5 mph82%30.30 "Hg5 mi
7:20 AM46 °FClear.5 mph87%30.30 "Hg5 mi
6:50 AM48 °FClear.5 mph82%30.27 "Hg5 mi
6:20 AM46 °FClear.5 mph87%30.30 "Hg5 mi
5:50 AM46 °FClear.7 mph87%30.30 "Hg5 mi
5:20 AM48 °FClear.5 mph87%30.30 "Hg5 mi
4:50 AM48 °FClear.5 mph87%30.30 "Hg6 mi
4:20 AM48 °FClear.5 mph82%30.30 "Hg10 mi
2:50 AM50 °FClear.6 mph82%30.30 "Hg10 mi
Weather by CustomWeather, © 2014

See weather overviewHow to use our weather pages